Probability
3 3 3 3 3 3 0 0 0 0 0 0 0 0 0 0 0 0 0 0 0 0 0 0 0 0 0 0 0 0 0 0 0 0 0 0 0 3
3 3 3 3 3 3 3 0 0 0 0 0 0 0 0 0 0 0 0 0 0 0 0 0 0 0 0 0 0 0 0 0 0 0 0 0 0 0
3 3 3 3 3 3 3 3 3 3 3 3 3 0 0 0 0 0 0 0 0 0 0 0 0 0 0 0 0 0 0 0 0 0 0 0 0 0
6 6 3 3 3 3 3 3 3 3 3 3 3 3 3 0 0 0 0 0 0 0 0 0 0 0 0 0 0 0 0 0 0 0 0 0 0 0
6 6 6 3 3 3 3 3 3 3 3 3 3 3 3 3 3 0 0 0 0 0 0 0 0 0 0 0 0 0 0 0 0 0 0 0 0 0
3 3 6 6 3 3 3 3 3 3 3 3 3 3 3 3 3 3 3 3 3 3 0 0 0 0 0 0 0 0 0 0 0 0 0 0 0 0
3 3 3 0 0 0 3 0 3 3 3 3 3 3 3 3 3 3 0 0 3 3 3 3 3 0 0 0 0 0 0 0 0 0 0 0 0 0
3 3 0 0 0 0 0 0 0 0 0 0 0 0 0 0 0 0 0 0 0 0 0 0 0 0 3 0 0 0 0 0 0 0 0 0 0 0
0 0 0 0 0 0 0 0 0 0 0 0 0 0 0 0 0 0 0 0 0 0 0 0 0 0 0 0 0 0 0 0 0 0 0 0 0 0
0 0 0 0 0 0 0 0 0 0 0 0 0 0 0 0 0 0 0 0 0 0 0 0 0 0 0 0 0 0 0 0 0 0 0 0 0 0
0 0 0 0 0 0 0 0 0 0 0 0 0 0 0 0 0 0 0 0 0 0 0 0 0 0 0 0 0 0 0 0 0 0 0 0 0 0
0 0 0 0 0 0 0 0 0 0 0 0 0 0 0 0 0 0 0 0 0 0 0 0 0 0 0 0 0 0 0 0 0 0 0 0 0 0
0 0 0 0 0 0 0 0 0 0 0 0 0 0 0 0 0 0 0 0 0 0 0 0 0 0 0 0 0 0 0 0 0 0 0 0 0 0
0 0 0 0 0 0 0 0 0 0 0 0 0 0 0 0 0 0 0 0 0 0 0 0 0 0 0 0 0 0 0 0 0 0 0 0 0 0
0 0 0 0 0 0 0 0 0 0 0 0 0 0 0 0 0 0 0 0 0 0 0 0 0 0 0 0 0 0 0 0 0 0 0 0 0 0
0 0 0 0 0 0 0 0 0 0 0 0 0 0 0 0 0 0 0 0 0 0 0 0 0 0 0 0 0 0 0 0 0 0 0 0 0 0
0 0 0 0 0 0 0 0 0 0 0 0 0 0 0 0 0 0 0 0 0 0 0 0 0 0 0 0 0 0 0 0 0 0 0 0 0 0
0 0 0 0 0 0 0 0 0 0 0 0 0 0 0 0 0 0 0 0 0 0 0 0 0 0 0 0 0 0 0 0 0 0 0 0 0 0
0 0 0 0 0 0 0 0 0 0 0 0 0 0 0 0 0 0 0 0 0 0 0 0 0 0 0 0 0 0 0 0 0 0 0 0 0 0
0 0 0 0 0 0 0 0 0 0 0 0 0 0 0 0 0 0 0 0 0 0 0 0 0 0 0 0 0 0 0 0 0 0 0 0 0 0
0 0 0 0 0 0 0 0 0 0 0 0 0 0 0 0 0 0 0 0 0 0 0 0 0 0 0 0 0 0 0 0 0 0 0 0 0 0
0 0 0 0 0 0 0 0 0 0 0 0 0 0 0 0 0 0 0 0 0 0 0 0 0 0 0 0 0 0 0 0 0 0 0 0 0 0
0 0 0 0 0 0 0 0 0 0 0 0 0 0 0 0 0 0 0 0 0 0 0 0 0 0 0 0 0 0 0 0 0 0 0 0 0 0
Height
5808 5808 5808 5807 5807 5807 5807 5807 5807 5806 5805 5805 5804 5804 5803 5803 5803 5802 5802 5802 5802 5802 5802 5802 5802 5803 5803 5803 5803 5804 5804 5804 5805 5806 5806 5808 5810 5811
5804 5804 5804 5804 5803 5803 5803 5802 5802 5801 5801 5800 5800 5799 5798 5798 5798 5797 5797 5797 5797 5796 5796 5796 5796 5796 5796 5796 5797 5797 5797 5797 5798 5799 5800 5801 5802 5804
5800 5800 5800 5800 5799 5799 5799 5798 5797 5797 5796 5796 5795 5794 5793 5793 5793 5792 5791 5791 5791 5790 5790 5790 5790 5789 5789 5789 5789 5789 5790 5790 5791 5792 5792 5794 5795 5796
5797 5797 5796 5796 5795 5795 5794 5793 5793 5792 5792 5791 5790 5789 5789 5788 5787 5787 5786 5786 5785 5784 5784 5783 5783 5782 5782 5782 5782 5782 5782 5783 5783 5784 5785 5786 5787 5789
5793 5793 5792 5792 5791 5791 5790 5789 5788 5788 5787 5786 5785 5784 5783 5783 5782 5781 5780 5780 5779 5778 5777 5777 5776 5775 5775 5775 5775 5775 5775 5775 5776 5777 5777 5778 5779 5780
5789 5789 5788 5788 5787 5786 5785 5784 5784 5783 5782 5781 5780 5779 5778 5777 5776 5775 5775 5773 5772 5771 5770 5769 5769 5768 5768 5768 5767 5767 5767 5767 5768 5768 5769 5770 5771 5772
5786 5785 5784 5783 5782 5781 5780 5779 5778 5777 5776 5776 5775 5774 5773 5771 5770 5769 5768 5767 5765 5764 5763 5762 5761 5761 5760 5760 5759 5759 5760 5759 5760 5760 5761 5762 5762 5763
5782 5781 5780 5779 5778 5777 5775 5774 5773 5772 5771 5770 5769 5768 5767 5765 5764 5763 5762 5761 5759 5758 5756 5756 5754 5753 5753 5752 5752 5752 5752 5752 5752 5752 5753 5753 5754 5754
5777 5776 5775 5774 5772 5771 5770 5769 5768 5767 5766 5765 5763 5762 5761 5759 5758 5756 5755 5754 5753 5751 5750 5749 5748 5747 5746 5745 5745 5744 5744 5744 5744 5744 5744 5744 5745 5745
5771 5770 5769 5768 5766 5765 5764 5763 5762 5760 5759 5758 5757 5755 5754 5752 5751 5749 5748 5747 5746 5744 5743 5742 5741 5740 5739 5738 5737 5736 5736 5735 5735 5735 5735 5735 5735 5736
5766 5764 5763 5762 5760 5759 5758 5756 5755 5754 5752 5751 5750 5748 5747 5745 5744 5742 5741 5739 5739 5738 5736 5735 5734 5733 5731 5730 5729 5728 5727 5727 5726 5726 5726 5726 5726 5726
5760 5758 5757 5755 5754 5752 5751 5750 5748 5747 5746 5745 5743 5741 5740 5738 5737 5735 5734 5732 5731 5730 5729 5727 5726 5725 5724 5723 5721 5720 5719 5718 5717 5717 5716 5716 5716 5716
5754 5753 5751 5749 5747 5746 5744 5743 5742 5741 5740 5738 5737 5735 5733 5732 5730 5728 5727 5725 5724 5722 5721 5719 5718 5717 5716 5715 5713 5712 5710 5709 5708 5707 5706 5706 5705 5705
5749 5747 5745 5743 5741 5740 5738 5737 5735 5734 5733 5732 5730 5729 5727 5725 5723 5721 5720 5718 5716 5715 5713 5711 5710 5708 5707 5706 5704 5703 5701 5699 5698 5697 5696 5695 5695 5694
5743 5741 5738 5736 5735 5733 5731 5730 5729 5728 5726 5725 5723 5722 5720 5718 5716 5714 5713 5711 5709 5707 5705 5703 5701 5700 5698 5696 5694 5693 5691 5690 5688 5687 5686 5685 5684 5684
5736 5734 5732 5730 5728 5727 5725 5723 5722 5721 5719 5718 5716 5715 5713 5711 5709 5707 5705 5704 5702 5700 5697 5695 5693 5691 5689 5687 5685 5683 5681 5680 5679 5677 5676 5675 5674 5673
5729 5728 5726 5724 5722 5720 5718 5717 5715 5714 5712 5711 5709 5708 5706 5704 5702 5700 5698 5696 5694 5692 5690 5687 5685 5682 5680 5678 5676 5674 5672 5670 5669 5668 5666 5665 5665 5664
5723 5721 5719 5717 5715 5713 5711 5710 5708 5706 5705 5703 5702 5700 5698 5696 5694 5692 5690 5688 5686 5684 5681 5679 5677 5674 5672 5670 5667 5665 5663 5661 5660 5659 5657 5657 5656 5655
5716 5714 5712 5710 5708 5706 5704 5703 5701 5700 5698 5696 5695 5693 5691 5689 5687 5684 5682 5680 5678 5675 5673 5670 5668 5666 5664 5662 5659 5656 5655 5653 5652 5650 5649 5648 5647 5646
5709 5707 5705 5703 5701 5699 5697 5696 5694 5693 5691 5689 5687 5685 5683 5681 5679 5676 5674 5672 5669 5667 5665 5662 5660 5657 5655 5654 5652 5649 5646 5645 5643 5642 5640 5639 5638 5637
5701 5699 5697 5696 5694 5692 5691 5689 5688 5686 5684 5681 5679 5677 5675 5673 5670 5668 5665 5663 5661 5659 5657 5654 5652 5649 5647 5645 5644 5641 5639 5636 5635 5633 5632 5631 5629 5628
5694 5692 5690 5688 5687 5685 5684 5682 5680 5678 5676 5674 5672 5669 5667 5665 5663 5660 5657 5655 5653 5651 5649 5646 5644 5642 5640 5638 5636 5634 5632 5629 5626 5624 5622 5621 5620 5618
5686 5684 5683 5681 5680 5678 5677 5675 5673 5670 5668 5666 5664 5662 5660 5657 5655 5652 5650 5647 5645 5643 5641 5639 5636 5634 5632 5630 5628 5626 5624 5621 5619 5617 5615 5612 5610 5609
Wind_Speed
13 14 14 15 15 15 15 15 15 16 17 16 16 17 17 18 18 19 19 19 20 21 21 22 23 23 24 25 25 26 26 26 27 28 28 28 29 29
13 14 15 15 15 15 16 16 16 16 16 16 16 17 18 19 19 20 20 20 20 20 22 22 23 23 24 25 26 26 26 26 27 27 28 29 29 30
12 13 13 14 15 16 16 17 16 16 16 17 18 18 18 18 19 20 20 20 20 20 21 22 23 24 25 25 26 27 28 27 27 28 29 29 30 30
12 13 13 14 14 15 15 15 15 15 16 16 16 17 17 18 18 19 20 21 21 22 23 23 24 25 26 27 27 27 28 29 29 29 29 30 31 31
12 12 13 14 15 15 15 15 15 15 15 16 17 18 18 18 18 19 20 21 22 23 23 24 24 25 26 27 28 28 28 28 29 29 29 30 30 31
12 12 13 14 15 15 16 16 16 16 16 17 18 18 19 19 19 20 21 21 22 23 23 24 25 25 26 27 28 28 27 28 28 29 29 30 30 31
12 12 13 14 15 15 16 16 17 17 17 17 18 18 19 19 20 21 21 21 21 22 23 23 24 24 25 26 27 27 27 27 28 28 29 29 30 31
14 14 15 15 15 16 17 17 17 17 18 18 18 19 20 21 21 22 22 22 22 22 23 23 23 24 24 25 26 26 27 27 28 29 29 30 30 31
16 17 17 18 18 18 18 18 18 18 19 20 20 20 21 21 22 23 23 22 22 23 23 23 24 24 24 24 26 26 27 28 29 30 31 31 32 33
18 19 19 19 19 20 20 20 20 20 21 21 22 22 23 23 23 23 24 23 23 23 24 23 23 24 24 25 26 27 28 29 30 30 31 32 33 33
18 19 20 20 20 21 21 21 21 22 22 22 22 23 23 23 24 24 23 23 22 22 23 24 24 25 25 26 27 27 28 29 30 30 31 31 32 33
19 19 19 20 21 21 21 21 21 21 21 21 21 21 22 22 22 23 23 23 23 23 24 25 25 25 25 25 26 27 28 28 29 30 30 31 32 33
19 19 19 20 20 21 21 21 20 20 20 20 21 21 21 22 22 23 23 24 24 25 25 26 27 26 26 26 26 27 28 28 29 30 30 31 32 32
19 19 20 20 20 19 19 19 20 21 21 21 21 21 21 22 23 24 24 24 25 25 26 26 27 27 28 29 28 28 29 29 29 30 30 31 32 32
20 20 20 20 19 19 20 20 20 21 22 22 22 22 22 22 23 24 24 24 24 25 25 26 27 28 29 29 29 29 29 29 30 30 30 31 32 32
21 21 21 21 21 21 21 21 21 22 22 23 22 23 23 23 23 23 23 23 24 24 25 26 27 27 28 28 29 29 29 29 29 29 30 30 30 30
21 21 21 21 21 21 22 22 22 22 22 22 23 23 24 24 24 23 23 24 25 25 26 27 27 28 28 28 28 28 28 27 27 27 27 27 27 28
22 22 22 22 22 22 22 23 23 23 23 23 23 23 24 24 23 24 25 25 26 26 27 27 27 27 27 27 27 27 27 27 26 26 26 26 26 27
22 23 23 23 22 22 22 22 22 22 22 22 23 23 24 24 24 25 26 26 26 27 27 27 27 27 27 27 25 26 26 26 26 27 27 27 28 28
22 22 22 22 22 22 21 21 21 21 22 23 24 24 24 25 25 26 26 25 25 25 25 26 26 26 26 26 25 26 26 27 27 27 27 27 27 28
22 22 22 22 21 21 21 21 21 22 23 24 24 25 24 25 25 25 25 25 25 25 25 26 26 26 26 25 25 25 26 27 27 27 27 27 27 27
22 21 21 21 20 20 21 21 22 23 23 24 24 24 25 25 25 25 25 26 26 26 26 26 26 26 26 26 25 25 25 26 26 27 27 28 27 27
20 20 20 20 20 20 21 22 23 23 24 24 24 24 24 25 24 24 25 25 26 25 25 25 25 25 25 25 25 26 26 27 27 27 27 28 28 28
Wind_Direction
264 264 265 264 263 265 266 268 271 273 271 270 269 265 264 264 265 264 263 263 262 262 261 261 259 259 258 258 259 258 258 257 256 254 253 252 251 249
268 269 270 268 267 268 270 272 273 273 271 269 269 267 266 266 266 265 266 268 268 267 264 262 260 260 260 259 259 259 258 258 255 252 252 253 252 251
273 274 271 269 267 270 273 273 273 274 273 270 267 269 268 268 269 267 266 268 269 268 266 265 262 260 260 260 260 259 258 258 255 254 253 253 253 252
277 275 274 274 276 277 279 278 277 277 277 275 270 269 270 270 269 268 269 269 270 268 267 267 265 262 262 261 261 262 259 258 257 256 255 254 253 252
280 276 275 277 278 279 279 278 279 280 279 277 274 272 271 273 272 271 271 271 270 268 266 268 267 265 265 263 263 263 262 260 258 257 256 255 254 253
283 278 277 276 278 278 276 276 279 280 279 278 277 275 273 274 274 273 274 274 272 269 269 269 268 266 267 265 264 263 262 260 259 259 258 257 255 254
282 280 277 276 276 277 278 279 280 281 280 279 277 275 275 275 276 276 277 277 275 274 272 271 269 267 266 266 264 263 262 261 259 260 260 259 257 256
280 279 277 275 275 275 277 279 281 281 281 279 279 279 278 278 277 279 281 280 278 277 275 274 271 270 267 267 266 265 264 263 263 261 260 261 260 259
278 278 279 277 277 278 278 279 281 282 282 281 281 281 280 280 280 280 281 281 278 277 277 276 274 273 271 269 267 268 266 266 266 264 263 261 261 261
279 279 280 279 279 279 280 281 281 282 282 281 281 281 280 279 281 282 281 280 279 278 278 278 277 276 275 274 272 271 271 270 269 267 265 264 263 262
283 284 283 282 281 281 281 281 281 281 282 283 283 282 281 280 281 281 282 281 279 278 279 279 279 278 277 277 276 275 275 273 272 270 267 266 265 264
286 287 287 287 285 283 282 282 283 283 283 283 285 285 284 283 282 282 283 283 281 280 280 279 279 279 279 279 279 278 276 274 272 271 270 268 268 267
287 288 287 289 289 287 283 282 283 282 283 284 284 285 286 286 284 284 283 282 282 281 280 280 279 279 279 279 279 280 279 277 275 272 271 269 269 268
290 289 288 288 288 286 284 284 284 282 280 282 282 284 286 286 286 286 285 284 284 284 282 281 281 281 282 282 280 279 278 277 276 274 272 269 269 269
290 291 291 291 289 287 286 285 285 285 282 281 282 282 283 285 286 286 286 285 286 288 287 285 284 285 286 284 282 279 278 277 276 275 273 272 271 270
289 291 290 289 288 287 287 286 287 287 285 283 283 283 284 286 287 286 285 286 286 287 288 288 288 288 288 286 284 282 280 279 277 276 274 273 272 270
289 290 291 291 291 289 288 286 286 287 287 285 285 285 285 286 287 287 287 289 289 289 289 289 288 288 289 288 287 285 283 282 280 279 277 275 274 272
286 289 290 290 289 288 287 286 286 286 287 288 286 285 285 287 287 287 288 289 290 290 290 290 290 291 291 291 288 286 285 284 283 282 280 278 276 273
284 286 288 288 288 288 286 286 285 285 287 287 288 287 286 287 287 287 287 288 289 291 292 292 292 292 292 292 290 288 286 285 284 283 282 280 278 275
284 285 286 288 288 287 287 287 287 286 287 288 288 288 288 288 289 290 289 289 289 290 291 292 293 293 294 293 291 290 289 287 285 283 282 282 282 279
285 285 285 286 287 287 286 287 288 288 289 290 290 290 289 290 291 291 290 289 289 290 290 292 293 293 293 293 293 292 291 289 287 285 283 282 282 280
284 284 285 286 286 285 286 287 289 290 291 291 291 290 290 290 290 289 290 291 290 290 291 292 294 294 293 293 294 294 293 292 290 288 286 285 284 282
284 284 285 286 286 286 287 290 292 293 292 292 292 291 291 292 291 291 292 292 291 290 291 292 293 294 294 293 294 294 294 293 291 290 288 286 285 283